JBU1080 EGPH-KBOS

Flight info

Callsign JBU1080
Flight time N/A
Altitude 32000
Route N0441F320 GOSAM DCT TRN N562 MACDCT NIBOG DCT VENER NATC LOMSI/N0431F340 N668A TAFFY DCT AJJAY OOSHN5
Aircraft A21N/M-SDE2E3FGHIRWXY/LB1

Departure

Time 2026-04-24 12:46
Airport Edinburgh Airport (EGPH)

Arrival

Time N/A
Airport Boston Logan International Airport (KBOS)
Time Latitude Longitude Altitude Speed Heading
2026-04-24 11:52 55.94657 -3.36628 121 ft 0 kts 89°
2026-04-24 12:34 55.94657 -3.36631 122 ft 2 kts 89°
2026-04-24 12:34 55.94660 -3.36676 120 ft 4 kts 106°
2026-04-24 12:35 55.94659 -3.36712 117 ft 4 kts 65°
2026-04-24 12:35 55.94645 -3.36739 118 ft 4 kts
2026-04-24 12:35 55.94621 -3.36734 119 ft 3 kts 358°
2026-04-24 12:35 55.94618 -3.36734 119 ft 0 kts 359°
2026-04-24 12:41 55.94648 -3.36735 122 ft 5 kts 359°
2026-04-24 12:41 55.94691 -3.36737 122 ft 7 kts 358°
2026-04-24 12:41 55.94747 -3.36749 122 ft 9 kts 339°
2026-04-24 12:41 55.94812 -3.36777 121 ft 10 kts 360°
2026-04-24 12:42 55.94885 -3.36797 118 ft 11 kts 333°
2026-04-24 12:42 55.94917 -3.36916 121 ft 12 kts 249°
2026-04-24 12:42 55.94872 -3.37055 117 ft 13 kts 238°
2026-04-24 12:42 55.94821 -3.37202 121 ft 14 kts 238°
2026-04-24 12:43 55.94767 -3.37358 120 ft 15 kts 238°
2026-04-24 12:43 55.94708 -3.37523 119 ft 16 kts 237°
2026-04-24 12:43 55.94653 -3.37701 121 ft 17 kts 239°
2026-04-24 12:43 55.94590 -3.37884 120 ft 18 kts 238°
2026-04-24 12:44 55.94524 -3.38072 121 ft 18 kts 237°
2026-04-24 12:44 55.94456 -3.38268 118 ft 19 kts 246°
2026-04-24 12:44 55.94388 -3.38473 117 ft 19 kts 240°
2026-04-24 12:44 55.94328 -3.38660 120 ft 11 kts 240°
2026-04-24 12:45 55.94288 -3.38785 120 ft 12 kts 249°
2026-04-24 12:45 55.94325 -3.38909 121 ft 13 kts 328°
2026-04-24 12:45 55.94408 -3.38956 116 ft 14 kts 23°
2026-04-24 12:45 55.94469 -3.38823 118 ft 15 kts 59°
2026-04-24 12:46 55.94620 -3.38374 114 ft 77 kts 57°
2026-04-24 12:46 55.95013 -3.37221 114 ft 141 kts 59°
2026-04-24 12:46 55.95556 -3.35597 594 ft 149 kts 59°
2026-04-24 12:46 55.96152 -3.34012 1219 ft 160 kts 48°
2026-04-24 12:47 55.97019 -3.32606 1493 ft 178 kts 41°
2026-04-24 12:47 55.97975 -3.31083 1863 ft 194 kts 41°
2026-04-24 12:47 55.99015 -3.29409 2307 ft 208 kts 41°
2026-04-24 12:47 56.00206 -3.27783 2776 ft 224 kts 24°
2026-04-24 12:48 56.01780 -3.27135 3033 ft 244 kts 355°
2026-04-24 12:48 56.03431 -3.28020 3496 ft 255 kts 325°
2026-04-24 12:48 56.04631 -3.30321 4226 ft 256 kts 296°
2026-04-24 12:48 56.05033 -3.33406 4992 ft 259 kts 267°
2026-04-24 12:49 56.04506 -3.36478 5730 ft 264 kts 238°
2026-04-24 12:49 56.03196 -3.38802 6513 ft 269 kts 218°
2026-04-24 12:49 56.01901 -3.41209 7228 ft 271 kts 243°
2026-04-24 12:49 56.01326 -3.44404 7943 ft 272 kts 258°
2026-04-24 12:50 56.00963 -3.47733 8654 ft 274 kts 260°
2026-04-24 12:50 56.00582 -3.51097 9350 ft 278 kts 258°
2026-04-24 12:50 55.99945 -3.54412 9969 ft 285 kts 247°
2026-04-24 12:50 55.99103 -3.57632 10635 ft 290 kts 245°
2026-04-24 12:51 55.98212 -3.60976 10936 ft 306 kts 246°
2026-04-24 12:51 55.97294 -3.64466 11197 ft 323 kts 246°
2026-04-24 12:51 55.96334 -3.68147 11713 ft 330 kts 246°
2026-04-24 12:51 55.95364 -3.71873 12371 ft 333 kts 246°
2026-04-24 12:52 55.94155 -3.76507 13163 ft 337 kts 245°
2026-04-24 12:52 55.93162 -3.80310 13807 ft 340 kts 245°
2026-04-24 12:52 55.92153 -3.84159 14427 ft 344 kts 245°
2026-04-24 12:52 55.91135 -3.88045 14980 ft 347 kts 245°
2026-04-24 12:53 55.90106 -3.91974 15586 ft 351 kts 245°
2026-04-24 12:53 55.89073 -3.95926 16177 ft 354 kts 245°
2026-04-24 12:53 55.88026 -3.99915 16769 ft 357 kts 245°
2026-04-24 12:53 55.86973 -4.03930 17346 ft 360 kts 245°
2026-04-24 12:54 55.86263 -4.06619 17721 ft 362 kts 245°
2026-04-24 12:54 55.84832 -4.12041 18470 ft 367 kts 245°
2026-04-24 12:54 55.83732 -4.16164 18973 ft 370 kts 244°
2026-04-24 12:54 55.82629 -4.20321 19465 ft 373 kts 244°
2026-04-24 12:55 55.81880 -4.23138 19804 ft 374 kts 245°
2026-04-24 12:55 55.80758 -4.27341 20291 ft 377 kts 244°
2026-04-24 12:55 55.79628 -4.31571 20769 ft 380 kts 244°
2026-04-24 12:55 55.78507 -4.35773 21245 ft 382 kts 244°
2026-04-24 12:56 55.77362 -4.40056 21713 ft 385 kts 244°
2026-04-24 12:56 55.76213 -4.44365 22184 ft 387 kts 245°
2026-04-24 12:56 55.75052 -4.48701 22634 ft 390 kts 244°
2026-04-24 12:56 55.73883 -4.53050 23103 ft 392 kts 244°
2026-04-24 12:57 55.72700 -4.57439 23537 ft 395 kts 244°
2026-04-24 12:57 55.71515 -4.61849 23949 ft 398 kts 244°
2026-04-24 12:57 55.70317 -4.66289 24291 ft 400 kts 244°
2026-04-24 12:57 55.69103 -4.70762 24646 ft 403 kts 244°
2026-04-24 12:58 55.67876 -4.75247 24962 ft 407 kts 244°
2026-04-24 12:58 55.66638 -4.79775 25282 ft 410 kts 244°
2026-04-24 12:58 55.65395 -4.84332 25611 ft 412 kts 244°
2026-04-24 12:58 55.64145 -4.88912 25947 ft 414 kts 244°
2026-04-24 12:59 55.62887 -4.93525 26280 ft 417 kts 244°
2026-04-24 12:59 55.61620 -4.98157 26594 ft 419 kts 244°
2026-04-24 12:59 55.60340 -5.02811 26918 ft 421 kts 244°
2026-04-24 12:59 55.59049 -5.07491 27210 ft 424 kts 244°
2026-04-24 13:00 55.57747 -5.12210 27496 ft 427 kts 244°
2026-04-24 13:00 55.56440 -5.16944 27804 ft 429 kts 244°
2026-04-24 13:00 55.55123 -5.21686 28111 ft 431 kts 244°
2026-04-24 13:00 55.53798 -5.26465 28395 ft 434 kts 244°
2026-04-24 13:01 55.52466 -5.31251 28691 ft 436 kts 244°
2026-04-24 13:01 55.51123 -5.36066 28989 ft 437 kts 244°
2026-04-24 13:01 55.49773 -5.40885 29251 ft 440 kts 244°
2026-04-24 13:01 55.48413 -5.45734 29527 ft 442 kts 244°
2026-04-24 13:02 55.47051 -5.50593 29789 ft 444 kts 244°
2026-04-24 13:02 55.45679 -5.55482 30044 ft 446 kts 244°
2026-04-24 13:02 55.44299 -5.60387 30325 ft 447 kts 244°
2026-04-24 13:02 55.43088 -5.65436 30537 ft 449 kts 253°
2026-04-24 13:03 55.42442 -5.70814 30742 ft 450 kts 262°
2026-04-24 13:03 55.42018 -5.76209 30990 ft 451 kts 263°
2026-04-24 13:03 55.41612 -5.81671 31342 ft 448 kts 262°
2026-04-24 13:03 55.41191 -5.87106 31654 ft 447 kts 262°
2026-04-24 13:04 55.40757 -5.92505 31943 ft 445 kts 262°
2026-04-24 13:04 55.40316 -5.97890 32244 ft 444 kts 262°
2026-04-24 13:04 55.39869 -6.03264 32371 ft 443 kts 261°
2026-04-24 13:05 55.38968 -6.13978 32365 ft 443 kts 261°
2026-04-24 13:05 55.38066 -6.24695 32351 ft 443 kts 261°
2026-04-24 13:06 55.37152 -6.35419 32348 ft 443 kts 261°
2026-04-24 13:06 55.36229 -6.46056 32343 ft 443 kts 261°
2026-04-24 13:07 55.35294 -6.56759 32340 ft 442 kts 261°
2026-04-24 13:07 55.34349 -6.67448 32329 ft 443 kts 261°
2026-04-24 13:08 55.33390 -6.78115 32330 ft 441 kts 260°
2026-04-24 13:08 55.32429 -6.88738 32315 ft 441 kts 260°
2026-04-24 13:09 55.30974 -7.04674 32312 ft 441 kts 260°
2026-04-24 13:09 55.29991 -7.15299 32305 ft 441 kts 260°